Location: Augsburg
(48.3836°N, 10.8929°E)
Time: 17:16:48
(UTC+02:00)

ISS - Pass Details

Date: 22 May 2021
Orbit: 417 x 422 km, 51.6° (Epoch: 12 June)

Event Time Altitude Azimuth Distance (km) Brightness Sun altitude
Rises 22:56:52 0° 285° (WNW) 2,367 0.8 -14.6°
Reaches altitude 10° 22:59:01 10° 291° (WNW) 1,503 -0.1 -14.8°
Maximum altitude 23:02:18 49° 7° (N) 550 -2.9 -15.1°
Enters shadow 23:05:23 11° 83° (E) 1,418 -1.3 -15.4°
